Regional Weather Roundup
Issued by NWS Cleveland, OH

Home | Current Version | Previous Version | Graphics & Text | Print | Product List | Glossary On
Versions: 1 2 3 4 5 6 7 8 9 10 11 12 13 14 15 16 17 18 19 20 21 22 23 24 25 26 27 28 29 30 31 32 33 34 35 36 37 38 39 40 41 42 43 44 45 46 47 48 49 50
000
ASUS41 KCLE 261500
RWRCLE
OHIO REGIONAL WEATHER ROUNDUP
NATIONAL WEATHER SERVICE WILMINGTON, OH
1100 AM EDT SUN MAR 26 2017

NOTE: "FAIR" INDICATES FEW OR NO CLOUDS BELOW 12,000 FEET WITH NO
SIGNIFICANT WEATHER AND/OR OBSTRUCTIONS TO VISIBILITY.

OHZ001>008-015>018-024>027-034-035-043-044-261600-
   NORTHWEST OHIO

CITY           SKY/WX    TMP DP  RH WIND       PRES   REMARKS
DEFIANCE       LGT RAIN  41  39  93 E10       29.98F FOG
FINDLAY        LGT RAIN  45  41  86 E8        29.98F FOG
TOLEDO EXPRESS RAIN      39  39 100 E8        30.01R FOG
TOLEDO EXEC    LGT RAIN  41  40  96 E5        30.03F FOG
LIMA           PTSUNNY   50  49  96 SE8       29.97S FOG
$$

OHZ009>014-019>023-028>033-038-089-261600-
   NORTHEAST OHIO

CITY           SKY/WX    TMP DP  RH WIND       PRES   REMARKS
CLE-HOPKINS    CLOUDY    67  48  50 S18       30.01S
CLE-LAKEFRONT  FAIR      66  50  56 SE18      29.98S
CUY CO. ARPT   CLOUDY    64  52  63 S15G24    30.01S
LORAIN-ELYRIA  PTSUNNY   62  48  60 S13       29.99S
ASHTABULA      FAIR      58  48  69 SE16G23   30.06S
AKRON-CANTON   CLOUDY    65  48  54 S20G26    30.03F
WOOSTER        NOT AVBL
MANSFIELD      PTSUNNY   62  49  62 S15G21    30.00S
YOUNGSTOWN     CLOUDY    61  48  62 SE17G24   30.06F
$$

OHZ042-051>053-060>062-070>072-077>081-261600-
  SOUTHWEST OHIO

CITY           SKY/WX    TMP DP  RH WIND       PRES   REMARKS
CINC-COVINGTON RAIN      58  56  93 S7        29.99F FOG
CINC-LUNKEN    LGT RAIN  59  58  96 S7        30.00F
HAMILTON       LGT RAIN  58  57  97 VRB3      30.00S FOG
DAYTON         NOT AVBL
WRIGHT-PAT AFB NOT AVBL
DAYTON GENERAL CLOUDY    59  55  87 S13G20    29.99R
WILMINGTON     PTSUNNY   58  56  93 S15       30.00S
$$

OHZ036-037-039>041-045>050-054>059-063>069-073>076-082>088-261600-
  CENTRAL AND SOUTHEAST OHIO

CITY           SKY/WX    TMP DP  RH WIND       PRES   REMARKS
COLUMBUS       LGT RAIN  58  55  90 S6        30.02S FOG
OSU AIRPORT    LGT RAIN  57  56  96 SE5       30.00F FOG
BOLTON FIELD   NOT AVBL
RICKENBACK AFB NOT AVBL
NEWARK         LGT RAIN  60  51  72 S10       30.03R
MARION         CLOUDY    53  50  89 S6        30.01S FOG
LANCASTER      LGT RAIN  60  53  77 S5        30.04R
ZANESVILLE     PTSUNNY   66  49  54 S12       30.03S
NEW PHILLY     FAIR      67  50  54 VRB7      30.04F
$$



USA.gov is the U.S. government's official web portal to all federal, state and local government web resources and services.